Starlink 35253

operational
NORAD ID: 65596 Int'l Des: 2025-207 Owner: SPXS Country: US Constellation: starlink
NOTLE

About Starlink 35253

Description loading...

Live Position

Loading 3D Globe...

Upcoming Passes

Altitude History

Altitude vs Time

uPlot chart will show altitude changes over time

Two-Line Element Set

1 65596U 25207E 25354.58336806 -.02358369 00000-0 -10027+0 0 9992
2 65596 97.6059 60.5548 0002908 93.7663 104.5577 15.27018043 5881
Epoch: Dec 20, 2025 • Age: 7 hours

Current Status

Altitude 498.3 km
Velocity 7.62 km/s
Sub-Earth Point 60.40°N, 1.4°W
Launch Date Sep 13, 2025
Age 0.2 years
Type internet

Technical Details

Classification Payload
Mass 575.00 kg
Dry Mass 530.00 kg
Total Mass 575.00 kg
Length 0.30 m
Diameter 4.10 m
Span 29.00 m
Shape Box + pan
Manufacturer SPXS
Bus Type Starlink V2MO
Phase Status In Orbit
Owner/State SPXS/US

Large Constellations

Loading constellations...